Regional Weather Roundup
Issued by NWS

Home | Current Version | Previous Version | Graphics & Text | Print | Product List | Glossary On
Versions: 1 2 3 4 5 6 7 8 9 10 11 12 13 14 15 16 17 18 19 20 21 22 23 24 25 26 27 28 29 30 31 32 33 34 35 36 37 38 39 40 41 42 43 44 45 46 47 48 49 50
000
ASUS43 KDMX 291107
RWRIA

WEATHER ROUNDUP FOR IOWA
NATIONAL WEATHER SERVICE DES MOINES IA
600 AM CDT WED JUL 29 2015

NOTE: "FAIR" INDICATES FEW OR NO CLOUDS BELOW 12,000 FEET WITH NO
SIGNIFICANT WEATHER AND/OR OBSTRUCTIONS TO VISIBILITY.

* - THESE STATIONS ARE NOT NWS STATIONS...THUS NOT UNDER NWS
QUALITY CONTROL.  THEY ALSO DO NOT REPORT WEATHER SUCH
AS PRECIPITATION OR FOG.

IAZ001>003-012>014-020>022-031>034-043>046-291200-
   NORTHWEST IOWA

CITY           SKY/WX    TMP DP  RH WIND       PRES   REMARKS
CARROLL *      CLEAR     61  61 100 W7        30.11R
CHEROKEE *     FOG       54  54 100 CALM      30.11R VSB 1/2
DENISON *      CLEAR     57  57 100 CALM      30.10S
LE MARS *      CLEAR     55  55 100 S3        30.12R
ORANGE CITY *  CLEAR     55  54  94 W3        30.11R
SHELDON *      CLEAR     57  54  88 SW6       30.09R
SIOUX CITY     CLEAR     58  55  90 CALM      30.12R
SPENCER          N/A     54  51  90 SW5       30.09R
STORM LAKE *   CLEAR     59  57  94 W10       30.11S
$$

IAZ055>058-069>071-079>083-090>094-291200-
   SOUTHWEST IOWA

CITY           SKY/WX    TMP DP  RH WIND       PRES   REMARKS
ATLANTIC *     CLEAR     61  61 100 CALM      30.11R
AUDUBON *      CLEAR     61  57  88 CALM      30.12R
CLARINDA *     PTCLDY    70  70 100 N5        30.11S
COUNCIL BLFS * CLEAR     63  61  94 N5        30.12S
CRESTON *      CLOUDY    70  70 100 CALM      30.10S
HARLAN  *      CLEAR     59  59 100 CALM      30.15R
LAMONI           N/A     72  70  93 NW6       30.08F
RED OAK *      CLEAR     64  63  94 CALM      30.10S
SHENANDOAH *   CLEAR     66  64  94 CALM      30.10S
$$

IAZ047>049-059>061-072>074-084-291200-
   CENTRAL IOWA

CITY           SKY/WX    TMP DP  RH WIND       PRES   REMARKS
AMES           CLOUDY    65  64  97 W3        30.08R
ANKENY *       CLOUDY    70  70 100 CALM      30.08R
CHARITON *     CLOUDY    70  70 100 W5        30.07S
DES MOINES     CLOUDY    73  69  87 W3        30.08R
GRINNELL*      CLOUDY    68  68 100 CALM      30.06R
KNOXVILLE *    PTCLDY    70  68  94 W6        30.05S
MARSHALLTOWN     N/A     68  66  93 W6        30.05R
PELLA *        CLOUDY    70  70 100 W7        30.06S
PERRY *          N/A     45  43  93 W5        30.09R
$$

IAZ004>006-015-016-023>025-035-036-291200-
   NORTH CENTRAL IOWA

CITY           SKY/WX    TMP DP  RH WIND       PRES   REMARKS
ALGONA *       CLEAR     59  57  94 SW6       30.07S
CLARION *      CLEAR     59  57  94 CALM      30.07S
ESTHERVILLE    CLEAR     56  53  90 SW8       30.07R
FORT DODGE *   MOCLDY    61  55  82 S3        30.09R
MASON CITY     MOCLDY    61  57  87 W9        30.06S
FOREST CITY *  CLEAR     55  55 100 CALM      30.05S
IOWA FALLS *     N/A     63  59  88 W5        30.08R
$$

IAZ007>011-017>019-026>030-037>042-050>054-066-291200-
   NORTHEAST IOWA

CITY           SKY/WX    TMP DP  RH WIND       PRES   REMARKS
CEDAR RAPIDS   CLOUDY    68  67  96 SW3       30.02R
CHARLES CITY * MOCLDY    63  61  94 W6        30.04R
CLINTON *      CLOUDY    72  70  94 W6        30.01S
DECORAH *      MOCLDY    68  61  77 CALM      30.01R
DUBUQUE        CLOUDY    70  66  87 N9        30.00S
MONTICELLO *   CLEAR     72  70  94 CALM      30.00S
OELWEIN *        N/A     66  66 100 W5        30.04R
WATERLOO       CLOUDY    68  62  81 W6        30.03R
$$

IAZ064-065-067-068-078-291200-
   EAST CENTRAL IOWA

CITY           SKY/WX    TMP DP  RH WIND       PRES   REMARKS
DAVENPORT      CLOUDY    72  70  93 W7        30.01R
IOWA CITY      CLOUDY    71  70  96 W5        30.04R
MT. PLEASANT * LGT RAIN  73  70  88 NW6       30.02F
MUSCATINE *    CLEAR     72  70  94 W7        30.01S
QUAD CITIES    CLOUDY    74  70  87 W7        29.99S
$$

IAZ062-063-075>077-085>089-095>099-291200-
   SOUTHEAST IOWA

CITY           SKY/WX    TMP DP  RH WIND       PRES   REMARKS
BURLINGTON     CLOUDY    72  71  97 NW8       30.01R
FAIRFIELD *    CLOUDY    72  70  94 NW6       30.03R
FORT MADISON * MOCLDY    72  72 100 N3        30.03F
KEOKUK *       MOCLDY    72  72 100 CALM      30.02S
OSKALOOSA *      N/A     70  68  94 NW5       30.04F
CENTERVILLE *  CLOUDY    70  70 100 W3        30.08S
OTTUMWA          N/A     70  70 100 NW7       30.02F
WASHINGTON *   CLOUDY    72  70  94 N9        30.02F
$$

ABBREVIATIONS USED IN REMARKS
   TC - TEMPERATURES IN CELSIUS
  WCI - WIND CHILL INDEX
   HX - HEAT INDEX
  VSB - VISIBILITY
$$




USA.gov is the U.S. government's official web portal to all federal, state and local government web resources and services.